GFSGL_sfc_thetae_054.txt.gz
Theta_e
283 282 282 282 283 283 282 283 283 281 281 281 281 281 280 280 281 281 281 281 282 283 285 285 286 287 288 288 286 287 287 287 285 288 289 284 283 285 286 287 288 289 290
282 281 281 281 281 280 281 282 282 280 281 281 281 280 280 280 280 279 279 280 280 281 282 282 283 287 286 286 287 286 286 287 286 285 288 284 281 283 286 285 286 287 288
281 280 280 280 279 279 279 280 281 280 280 280 280 280 279 279 279 279 279 279 279 280 281 281 282 283 283 285 285 285 286 287 286 286 286 285 283 280 282 282 284 285 285
280 279 279 279 279 279 279 279 279 279 279 278 279 279 279 279 279 279 279 279 279 280 281 282 282 282 282 283 284 284 285 285 285 285 285 286 280 281 283 282 281 282 282
279 279 279 279 280 279 279 279 279 279 279 279 279 279 279 278 279 278 278 278 278 279 280 281 281 283 285 285 284 283 284 284 285 285 284 285 281 278 280 281 282 282 281
278 279 280 280 280 280 280 280 280 280 280 279 279 278 278 278 281 282 281 279 278 278 278 279 280 281 282 286 287 288 287 284 284 285 284 283 284 282 282 282 281 280 278
278 278 278 278 277 278 278 277 277 277 277 277 277 277 277 278 281 282 282 279 278 277 277 278 278 279 280 281 283 285 286 288 290 287 285 284 284 286 283 281 281 282 282
275 274 274 274 272 273 272 272 271 272 272 272 272 273 273 275 279 279 280 278 278 277 277 276 276 276 277 278 278 279 281 282 283 284 286 287 288 287 288 284 283 283 284
272 272 272 270 268 269 267 268 268 267 267 266 268 268 268 269 273 274 274 273 274 275 276 276 275 274 277 278 276 276 278 280 285 288 289 289 290 292 291 286 282 281 280
270 269 269 268 266 265 265 264 264 264 264 265 264 265 265 264 269 271 271 269 269 271 272 273 275 274 276 278 275 275 275 278 280 282 283 286 288 288 290 289 285 281 280
267 266 266 265 263 262 262 262 261 261 262 261 261 262 262 264 265 269 271 270 269 269 269 270 272 275 276 277 279 276 277 280 281 281 282 284 284 284 285 288 288 284 282
264 263 262 261 261 261 259 260 260 259 259 259 259 260 262 263 266 268 270 271 272 268 268 270 270 273 274 275 276 278 280 282 281 281 282 282 283 283 284 285 287 286 286
260 258 258 259 260 260 259 259 259 259 259 259 259 259 260 262 263 267 269 270 270 268 268 269 272 273 274 274 275 277 276 276 278 280 280 281 283 284 284 284 285 285 284
257 258 259 259 259 259 260 259 258 258 258 258 259 259 260 261 263 264 264 264 267 268 269 267 269 271 273 273 271 273 273 275 277 280 280 281 284 283 282 283 283 282 281
258 259 258 259 258 258 259 259 259 261 261 261 263 264 264 264 266 270 271 270 270 270 270 268 266 265 265 268 270 271 272 276 277 277 277 279 282 281 281 283 281 279 278
257 258 259 259 258 258 258 258 264 266 267 269 270 269 268 271 272 273 274 274 274 275 270 268 266 266 266 267 267 268 271 272 276 277 279 279 280 280 280 280 280 278 277
257 259 259 259 258 258 258 257 256 260 266 267 268 269 271 271 273 273 273 274 274 274 268 267 266 266 266 267 268 269 270 272 275 277 279 280 281 280 279 277 278 276 276
258 259 258 258 258 258 258 258 258 257 257 259 265 268 270 271 271 272 273 273 267 268 266 266 265 265 265 267 268 268 269 270 272 275 278 280 280 279 277 276 275 275 273
257 257 258 258 258 258 258 258 259 259 259 260 262 265 265 268 270 270 270 264 264 264 265 265 265 266 265 266 266 267 269 272 274 276 278 278 277 277 275 275 275 275 272
257 258 258 257 257 257 257 258 258 259 259 259 259 260 261 265 260 260 262 262 262 263 264 265 267 266 267 268 268 269 270 271 275 276 276 276 276 275 274 273 273 271 271
257 256 256 256 255 256 257 257 258 258 258 259 259 261 268 261 260 260 260 261 261 262 263 265 268 270 270 270 271 274 273 272 272 272 272 272 272 271 272 272 271 271 270
254 254 255 254 255 256 256 257 258 258 258 258 259 260 266 260 260 260 260 260 261 262 263 264 265 267 268 269 270 270 270 270 270 270 270 270 270 270 270 270 269 269 268
252 252 254 254 254 255 256 256 257 258 258 258 259 259 259 259 260 260 260 261 261 262 263 263 264 265 266 267 268 268 268 268 269 270 269 269 269 269 269 268 268 267 267
249 250 252 253 253 254 254 255 256 257 257 257 258 258 259 259 260 260 261 261 261 262 262 263 264 264 265 266 267 268 268 268 269 269 269 268 267 267 267 267 266 266 266
246 247 249 250 251 252 253 254 255 255 255 256 256 257 258 259 259 260 260 261 261 261 262 263 264 265 265 265 266 267 268 267 268 268 268 267 267 266 266 266 266 265 265
247 247 247 249 249 250 250 252 252 253 253 254 255 255 256 258 259 259 260 260 260 261 262 263 264 266 267 268 268 269 269 269 267 267 267 266 266 265 265 265 264 264 264

GFSGL_sfc_thetae_057.txt.gz
Theta_e
282 281 281 281 281 281 281 281 281 281 281 281 281 281 280 280 279 278 278 278 279 280 280 280 280 282 284 285 285 286 286 286 285 287 289 290 285 285 286 287 288 287 289
281 281 280 280 280 279 279 280 281 280 281 280 280 280 280 280 280 279 278 277 277 278 278 278 279 281 280 282 284 284 285 286 285 284 287 287 284 283 285 285 286 287 287
280 279 279 279 279 278 279 279 280 280 280 280 280 279 279 280 279 279 278 278 278 277 277 278 279 279 280 280 280 282 283 285 285 284 284 286 287 281 283 283 284 285 286
278 278 278 278 278 278 279 279 279 279 279 278 278 279 279 279 279 279 279 278 278 278 278 278 279 279 280 280 280 280 281 281 282 283 283 284 285 284 282 282 281 282 284
277 278 278 279 279 278 278 278 279 279 279 279 279 279 279 279 279 278 278 278 278 278 278 279 279 279 282 282 280 280 280 280 280 280 281 281 283 281 280 282 282 284 282
276 277 277 277 277 277 276 276 275 275 274 275 274 274 275 276 279 280 280 278 278 278 277 278 278 278 279 282 282 284 284 281 281 280 280 280 281 283 284 282 283 281 280
275 275 274 274 273 273 273 272 271 271 271 271 271 271 271 271 275 276 276 275 275 275 276 278 278 278 278 278 280 281 281 283 284 282 281 281 281 283 283 284 282 282 282
272 271 271 271 269 270 269 268 268 268 268 267 267 267 267 268 272 273 273 271 271 271 272 273 274 276 277 277 276 276 276 277 278 279 279 281 283 285 285 285 285 283 284
270 270 269 268 266 267 265 265 265 265 264 264 265 264 264 264 269 270 271 269 269 269 270 271 271 272 275 277 276 275 274 275 278 280 281 283 286 287 287 285 284 283 281
268 268 267 266 264 263 263 262 263 262 263 263 263 263 263 262 267 269 270 268 266 268 269 270 272 272 274 276 273 272 271 272 274 274 275 278 282 283 287 286 284 282 282
266 266 265 264 262 262 261 261 260 260 261 260 260 261 261 262 263 268 270 268 267 267 267 268 270 273 274 275 276 273 273 275 275 275 275 277 278 280 282 283 285 284 283
264 263 261 260 260 261 259 259 259 259 258 258 259 259 261 263 265 267 270 271 271 268 267 268 269 272 273 274 273 274 275 275 272 272 273 275 276 278 281 282 284 284 286
258 257 257 258 259 260 258 258 258 258 258 258 259 259 259 262 262 267 270 271 271 268 268 269 273 274 275 274 274 273 272 270 269 269 271 272 275 279 281 282 283 284 284
254 256 259 259 259 259 260 259 258 258 258 258 258 259 260 263 265 267 267 268 270 270 270 268 270 272 273 273 271 272 271 270 269 269 270 271 274 275 280 282 282 282 282
256 259 259 259 259 259 260 259 260 261 262 262 264 264 264 264 266 271 272 271 272 273 273 272 271 269 267 265 266 266 267 267 268 270 270 270 271 274 280 281 282 282 280
256 258 258 259 259 260 259 259 264 266 267 269 270 268 267 271 272 274 274 275 275 276 272 270 269 268 268 268 268 267 267 267 268 269 270 271 273 275 277 278 280 280 280
254 257 258 259 258 258 258 258 257 260 265 266 268 269 270 271 271 272 273 274 274 272 265 265 265 266 266 267 267 267 267 267 269 270 271 272 276 277 276 276 278 280 279
253 257 257 257 257 257 257 257 257 256 256 258 263 266 268 269 270 272 271 270 261 263 263 263 263 264 265 266 266 266 266 267 268 269 269 270 272 275 277 278 278 277 278
253 254 255 257 257 256 256 256 257 257 257 258 259 262 263 267 269 267 267 261 260 260 261 261 263 263 265 268 267 266 265 265 266 267 270 271 273 275 277 279 279 278 277
251 255 257 255 255 254 255 255 256 256 257 257 258 259 260 264 259 259 260 259 259 260 261 261 262 263 266 268 267 267 267 267 267 267 268 271 273 277 277 277 276 275 274
251 252 255 254 252 253 253 254 255 256 257 257 258 259 268 260 259 259 259 260 260 260 261 261 262 263 265 266 267 269 270 270 270 270 272 273 274 273 274 275 274 273 271
249 249 251 249 252 252 251 254 255 255 256 256 257 258 265 259 259 260 260 260 261 262 262 262 263 264 265 266 266 266 267 267 268 269 269 270 271 271 271 271 270 270 269
250 250 250 249 250 252 251 252 253 254 255 255 256 256 257 258 259 259 260 261 261 262 263 263 264 265 266 266 267 267 266 267 268 269 269 269 269 269 269 269 269 268 268
250 250 249 248 248 249 249 251 252 253 253 254 254 254 255 256 258 259 260 261 261 262 263 264 264 265 266 267 267 267 268 268 268 268 269 268 267 268 268 267 267 267 267
248 250 249 248 246 247 248 249 251 249 251 252 253 253 254 255 256 258 259 260 260 261 262 263 264 265 266 267 268 268 268 267 268 268 268 267 267 266 266 266 266 266 266
250 250 250 249 248 247 245 247 249 250 251 252 253 253 253 254 255 257 258 259 259 260 260 262 263 264 266 267 268 271 271 270 267 267 267 267 266 265 265 265 265 264 264

GFSGL_sfc_thetae_060.txt.gz
Theta_e
281 280 280 280 280 279 279 279 279 280 280 280 280 280 280 280 280 278 277 277 277 277 277 277 278 279 279 279 281 282 283 284 281 283 286 289 288 287 288 287 288 287 288
280 280 280 280 279 279 278 279 279 279 280 280 280 280 280 280 279 278 278 278 277 277 277 276 277 279 277 278 279 279 280 281 281 279 282 283 285 287 287 287 288 288 287
278 278 278 278 278 278 278 279 279 279 279 279 279 278 279 279 278 278 278 278 277 277 277 277 277 277 277 277 278 278 279 280 280 280 280 282 284 285 284 284 285 286 286
278 278 277 277 277 277 278 277 277 277 276 276 276 277 277 277 277 278 278 278 277 277 278 278 277 277 277 277 278 278 279 278 279 278 278 279 281 283 283 282 283 283 284
276 276 275 276 276 276 275 275 274 274 274 274 273 273 273 273 274 274 275 275 274 275 276 278 278 279 280 280 279 278 278 277 277 277 277 278 278 279 280 282 281 282 284
274 274 275 274 274 273 273 272 272 271 271 271 270 270 270 271 274 275 274 272 273 273 272 274 275 276 278 281 282 282 281 278 276 277 278 278 279 280 281 281 281 281 279
273 273 273 272 270 270 270 269 269 268 268 268 268 267 267 267 271 273 274 272 271 270 270 271 272 273 273 274 276 278 280 281 281 279 277 277 278 280 281 281 281 281 281
270 269 270 269 267 268 267 267 266 266 266 265 265 265 265 266 270 271 272 270 269 269 269 269 269 270 271 271 271 271 273 275 277 277 277 276 277 277 278 279 280 282 283
269 269 268 267 265 265 263 264 264 263 263 263 264 263 263 263 268 270 270 268 268 268 269 269 269 269 272 274 272 270 271 272 276 278 280 281 282 282 281 279 277 278 278
268 267 267 266 261 262 263 262 262 261 262 262 262 262 262 261 266 268 269 268 266 267 268 269 271 270 273 274 272 270 269 271 272 272 274 275 277 276 279 277 276 275 277
266 265 265 264 261 261 261 261 260 259 260 259 260 261 261 262 262 268 270 268 267 267 267 268 269 273 274 274 275 272 271 273 272 272 272 272 273 275 275 276 277 277 276
264 263 260 258 258 260 257 258 258 258 257 257 258 259 261 262 265 267 270 271 272 269 268 269 269 273 274 275 275 275 276 276 273 272 271 270 270 271 273 275 278 279 280
257 254 254 257 258 259 257 258 258 258 257 258 259 259 260 262 263 268 270 271 272 270 271 271 275 276 277 276 275 275 273 270 269 267 267 267 269 271 272 273 275 277 279
250 255 257 257 258 258 259 260 258 258 258 259 259 260 262 265 266 267 267 268 271 272 274 272 273 275 277 276 272 273 271 271 270 269 269 269 270 269 269 271 270 272 272
254 257 257 257 256 258 260 259 260 262 263 263 264 265 264 264 266 272 272 271 271 273 274 271 269 269 268 269 270 269 268 268 267 268 267 267 267 268 269 270 270 270 271
255 257 257 258 258 259 259 259 264 266 268 269 270 269 268 270 272 273 273 274 275 274 268 262 262 263 264 265 265 266 267 268 268 267 266 267 267 267 268 270 270 270 270
250 255 257 258 257 257 257 257 256 259 265 266 267 268 270 270 271 272 272 272 270 268 260 260 261 261 262 263 264 265 265 267 269 268 268 267 268 269 269 269 271 275 273
249 254 254 255 254 255 256 255 255 255 255 257 262 265 268 269 271 270 270 265 259 260 259 259 259 260 261 262 264 265 268 268 267 267 266 267 267 268 269 269 272 274 274
250 251 252 253 254 253 254 254 254 254 255 255 257 261 262 266 269 267 267 259 258 258 259 259 260 261 262 263 264 266 267 268 267 266 266 267 268 268 269 271 273 274 276
248 252 254 249 251 251 251 252 253 253 254 255 256 256 258 263 258 258 259 259 259 259 260 260 261 262 263 264 264 265 266 268 268 266 266 266 267 267 268 270 273 275 277
248 248 252 249 247 249 251 250 252 253 253 254 255 256 267 259 256 257 258 260 260 260 260 261 262 262 264 265 265 265 265 266 268 269 270 269 270 270 272 274 276 274 273
247 246 245 245 249 252 250 251 251 251 251 252 254 255 263 255 255 256 258 259 260 261 262 262 262 264 265 266 266 265 265 266 266 267 268 269 270 270 270 270 270 270 270
248 247 246 246 248 252 252 249 249 250 250 250 252 253 253 253 254 255 256 258 260 260 262 262 263 264 266 267 268 268 266 266 267 267 267 268 268 268 269 268 268 268 268
247 246 247 248 247 250 250 250 250 251 251 250 249 251 252 252 253 254 255 257 259 260 261 261 262 263 264 266 268 269 269 268 267 267 267 267 267 267 267 267 267 267 267
244 245 246 248 246 250 249 250 250 249 249 249 250 250 252 252 253 254 255 257 258 259 260 261 262 262 263 264 267 268 270 268 267 267 267 267 266 266 266 266 266 265 265
245 246 248 249 249 250 250 250 249 249 249 250 250 250 251 252 253 253 254 256 257 258 260 261 261 262 262 264 268 269 271 271 267 267 267 266 265 265 265 264 264 264 264

GFSGL_sfc_thetae_063.txt.gz
Theta_e
282 282 282 282 282 282 281 281 281 282 281 281 281 281 281 281 281 280 280 280 280 280 280 279 279 280 280 281 281 282 281 282 280 282 285 287 287 288 289 291 291 291 292
281 281 281 281 281 280 280 280 281 280 280 279 280 279 279 279 279 279 279 279 279 279 279 279 279 279 279 279 280 279 280 281 280 278 281 283 284 286 287 287 288 289 291
280 280 280 279 279 278 278 279 279 278 277 277 276 276 276 276 276 276 276 277 278 278 279 278 279 279 278 279 279 279 279 280 280 279 279 281 282 284 284 285 286 288 288
279 278 277 277 277 277 277 276 275 275 274 274 274 274 274 273 273 274 274 274 275 275 276 276 276 277 278 278 279 279 279 279 279 278 278 279 280 282 283 282 282 285 285
277 276 275 276 276 275 274 273 273 273 273 272 272 271 271 271 272 272 273 272 272 273 274 274 274 275 276 277 276 277 278 278 278 278 277 278 278 278 279 282 282 284 285
275 274 275 274 273 272 272 271 271 270 270 270 269 269 268 269 272 273 273 272 272 271 271 271 272 273 273 275 276 277 277 275 275 276 277 277 277 278 280 281 281 280 279
273 273 272 271 270 270 269 269 268 268 268 267 267 267 266 267 270 273 273 271 270 270 270 270 270 271 271 271 272 274 274 275 276 274 273 274 276 278 279 278 279 279 279
271 271 270 269 268 267 267 266 266 266 265 265 265 265 265 266 270 271 272 270 269 269 269 269 269 269 270 271 271 271 272 273 273 274 274 274 275 276 278 278 277 277 278
270 269 268 267 265 265 263 264 264 264 263 263 265 264 263 263 268 270 270 269 268 268 269 269 269 269 271 273 272 271 271 272 275 277 277 278 279 279 279 278 276 275 274
269 268 267 266 262 262 263 262 263 262 263 263 263 263 262 262 266 269 270 269 267 268 269 269 271 271 273 275 273 272 270 271 272 272 273 275 276 275 277 276 275 272 272
267 266 265 264 262 261 261 261 260 260 261 260 260 261 262 262 263 268 271 270 269 268 269 270 271 273 274 275 276 273 272 274 274 273 273 273 274 274 275 275 276 275 273
265 264 261 258 259 261 257 258 258 258 258 258 258 260 262 263 266 268 271 273 273 270 269 271 271 274 275 277 277 277 279 279 275 272 272 271 272 272 274 274 275 275 276
260 255 254 257 259 259 257 258 258 259 258 259 260 260 262 264 266 270 271 272 273 272 272 273 276 277 277 276 276 277 276 274 273 271 270 271 271 272 273 273 273 274 274
253 256 258 257 258 258 260 260 259 258 259 260 261 262 265 266 267 268 269 271 273 273 273 273 272 272 272 271 269 270 270 271 270 269 269 271 272 272 271 272 271 271 270
256 258 258 258 257 258 260 260 261 262 263 264 266 266 265 265 267 273 273 272 272 272 270 266 263 264 264 265 265 266 267 267 267 268 268 268 269 269 270 271 270 269 268
258 259 258 258 258 259 259 259 263 266 268 269 270 269 268 271 272 273 274 274 272 271 263 260 260 261 261 262 263 263 265 265 267 267 268 268 268 268 268 269 269 268 268
254 257 257 258 257 257 257 257 256 259 264 266 267 268 269 270 271 273 272 272 268 267 260 259 259 260 261 262 262 263 264 266 267 268 269 268 268 268 268 268 268 269 268
251 255 254 255 255 255 255 256 255 254 254 256 261 264 267 268 270 271 270 266 260 261 260 259 260 261 261 262 263 264 265 266 267 268 269 268 267 267 267 267 268 268 269
252 252 253 253 253 254 254 253 253 253 253 254 256 260 261 265 268 266 266 259 259 259 260 260 261 261 262 263 264 265 266 266 266 267 269 268 267 267 267 268 268 269 270
250 252 253 252 253 252 252 252 252 252 253 253 254 255 256 261 258 257 258 258 259 259 260 260 261 262 263 263 265 266 266 266 266 267 268 269 269 268 267 267 268 268 270
250 250 253 251 250 250 250 250 251 252 253 253 253 255 264 258 255 255 256 257 258 259 260 260 261 262 263 264 265 266 266 267 266 267 267 268 269 269 271 271 271 271 273
250 249 247 249 250 250 250 250 251 251 253 252 253 253 261 253 253 254 255 256 257 258 259 260 261 262 263 264 264 266 267 267 266 266 266 267 268 269 269 270 270 271 271
250 250 249 250 251 249 250 249 249 251 252 252 252 252 252 252 252 253 254 255 256 258 259 260 260 261 263 263 265 267 267 268 267 267 266 266 267 267 268 268 268 268 268
252 251 252 252 251 249 249 249 250 251 252 253 251 251 251 252 252 252 253 254 255 257 259 260 260 260 262 263 264 266 269 270 268 267 267 266 266 266 267 267 267 266 267
251 252 253 251 250 249 248 248 250 250 251 252 252 250 251 251 251 252 253 254 255 256 256 258 260 261 262 262 264 265 269 270 268 267 267 266 266 266 265 265 265 266 266
254 252 251 251 250 249 249 249 250 251 251 251 250 250 250 250 251 252 253 253 254 254 254 256 258 258 260 262 264 268 270 272 269 267 267 266 265 265 265 264 264 264 264